Regional Weather Roundup
Issued by NWS

Home | Current Version | Previous Version | Text Only | Print | Product List | Glossary Off
Versions: 1 2 3 4 5 6 7 8 9 10 11 12 13 14 15 16 17 18 19 20 21 22 23 24 25 26 27 28 29 30 31 32 33 34 35 36 37 38 39 40 41 42 43 44 45 46 47 48 49 50

000
ASUS43 KLMK 280710
RWRKY
KENTUCKY REGIONAL WEATHER ROUNDUP
NATIONAL WEATHER SERVICE LOUISVILLE KY
300 AM EDT WED SEP 28 2016

NOTE "FAIR" INDICATES FEW OR NO CLOUDS BELOW 12,000 FEET
WITH NO SIGNIFICANT WEATHER AND/OR OBSTRUCTIONS TO VISIBILITY.

KYZ001>023-026-027-061>063-070>075-280800-
WESTERN AND SOUTH CENTRAL KENTUCKY

CITY           SKY/WX    TMP DP  RH WIND       PRES   REMARKS
PADUCAH        CLEAR     61  49  64 SW7       29.89S
HENDERSON      CLEAR     59  48  67 SW9       29.86S
OWENSBORO      NOT AVBL
HOPKINSVILLE   CLEAR     57  49  75 S5        29.91F
BOWLING GREEN  CLEAR     54  50  86 CALM      29.92F
GLASGOW        CLEAR     51  51 100 CALM      29.93S
$$

KYZ024-025-028>034-038-045-046-053-280800-
NORTH CENTRAL KENTUCKY

CITY           SKY/WX    TMP DP  RH WIND       PRES   REMARKS
LOUISVILLE/SDF PTCLDY    64  46  52 S8        29.87F
LOUISVILLE/LOU PTCLDY    60  48  64 S3        29.89S
FORT KNOX      CLEAR     56  48  75 S8        29.88F
$$

KYZ035>037-039>044-047>052-055>060-089>105-280800-
NORTHEAST KENTUCKY

CITY           SKY/WX    TMP DP  RH WIND       PRES   REMARKS
LEXINGTON      CLEAR     58  44  60 S8        29.91F
COVINGTON      PTCLDY    56  48  74 S9        29.87S
FRANKFORT      CLEAR     55  45  68 S6        29.89F
$$

KYZ054-064>069-076>088-106>120-280800-
SOUTHEAST KENTUCKY

CITY           SKY/WX    TMP DP  RH WIND       PRES   REMARKS
JACKSON        CLEAR     52  46  80 CALM      29.95S
LONDON         CLEAR     48  44  86 CALM      29.95F
SOMERSET       CLEAR     46  46 100 CALM      29.96F
MIDDLESBORO    MOCLDY    48  48  98 CALM      29.98S
MONTICELLO     SUNNY     46  45  96 W9        29.97S
$$





USA.gov is the U.S. government's official web portal to all federal, state and local government web resources and services.